| time (UTC) | temp F | wind direction | speed MPH | gust MPH | rain 1hr in | rain 24hr in | rain mn in | humidity % | barometer mb |
| 20260906155306 | 72 | 45 | 5.0 | 8.0 | 0.00 | 0.04 | 0.00 | 39 | 1030.1 |
| 20260906154803 | 72 | 34 | 4.0 | 8.0 | 0.00 | 0.04 | 0.00 | 39 | 1030.1 |
| 20260906153803 | 71 | 22 | 6.0 | 8.0 | 0.00 | 0.04 | 0.00 | 41 | 1030.1 |
| 20260906152803 | 70 | 45 | 4.0 | 7.0 | 0.00 | 0.04 | 0.00 | 42 | 1030.1 |
| 20260906152306 | 69 | 0 | 2.0 | 6.0 | 0.00 | 0.04 | 0.00 | 43 | 1030.1 |
| 20260906151803 | 69 | 44 | 3.0 | 7.0 | 0.00 | 0.04 | 0.00 | 44 | 1030.1 |
| 20260906151303 | 68 | 46 | 4.0 | 8.0 | 0.00 | 0.04 | 0.00 | 44 | 1030.1 |
| 20260906150803 | 68 | 88 | 4.0 | 7.0 | 0.00 | 0.04 | 0.00 | 44 | 1030.1 |
| 20260906150304 | 68 | 90 | 6.0 | 9.0 | 0.00 | 0.04 | 0.00 | 43 | 1030.1 |
| 20260906145306 | 68 | 90 | 4.0 | 6.0 | 0.00 | 0.04 | 0.00 | 43 | 1030.1 |
| 20260906144804 | 68 | 132 | 5.0 | 8.0 | 0.00 | 0.04 | 0.00 | 43 | 1030.1 |
| 20260906144303 | 67 | 135 | 5.0 | 6.0 | 0.00 | 0.04 | 0.00 | 44 | 1030.1 |
| 20260906143803 | 66 | 169 | 4.0 | 7.0 | 0.00 | 0.04 | 0.00 | 47 | 1030.1 |
| 20260906143304 | 65 | 159 | 6.0 | 8.0 | 0.00 | 0.04 | 0.00 | 50 | 1030.1 |
| 20260906142803 | 64 | 152 | 6.0 | 9.0 | 0.00 | 0.04 | 0.00 | 51 | 1030.1 |
| 20260906141803 | 64 | 134 | 7.0 | 10.0 | 0.00 | 0.04 | 0.00 | 52 | 1030.1 |
| 20260906141303 | 64 | 135 | 8.0 | 10.0 | 0.00 | 0.04 | 0.00 | 52 | 1030.1 |
| 20260906140805 | 64 | 130 | 7.0 | 9.0 | 0.00 | 0.04 | 0.00 | 52 | 1030.4 |
| 20260906135803 | 63 | 135 | 6.0 | 8.0 | 0.00 | 0.04 | 0.00 | 53 | 1030.1 |
| 20260906135306 | 63 | 135 | 5.0 | 7.0 | 0.00 | 0.04 | 0.00 | 54 | 1030.1 |
| 20260906134803 | 62 | 180 | 3.0 | 5.0 | 0.00 | 0.04 | 0.00 | 56 | 1030.1 |
| 20260906133803 | 60 | 180 | 4.0 | 6.0 | 0.00 | 0.04 | 0.00 | 58 | 1030.1 |
| 20260906133304 | 59 | 180 | 3.0 | 3.0 | 0.00 | 0.04 | 0.00 | 60 | 1030.1 |
| 20260906132804 | 59 | 225 | 4.0 | 5.0 | 0.00 | 0.04 | 0.00 | 60 | 1030.1 |
| 20260906132306 | 58 | 225 | 3.0 | 5.0 | 0.00 | 0.04 | 0.00 | 60 | 1030.1 |
| 20260906131803 | 57 | 225 | 3.0 | 5.0 | 0.00 | 0.04 | 0.00 | 61 | 1030.1 |
| 20260906131303 | 57 | 225 | 5.0 | 5.0 | 0.00 | 0.04 | 0.00 | 62 | 1030.1 |
| 20260906130303 | 56 | 180 | 1.0 | 5.0 | 0.00 | 0.04 | 0.00 | 61 | 1030.1 |
| 20260906125804 | 55 | 225 | 5.0 | 8.0 | 0.00 | 0.04 | 0.00 | 62 | 1030.1 |
| 20260906125306 | 55 | 219 | 5.0 | 8.0 | 0.00 | 0.04 | 0.00 | 62 | 1029.8 |
| 20260906124804 | 55 | 225 | 7.0 | 8.0 | 0.00 | 0.04 | 0.00 | 63 | 1030.1 |
| 20260906124303 | 55 | 225 | 5.0 | 8.0 | 0.00 | 0.04 | 0.00 | 63 | 1029.8 |
| 20260906123804 | 56 | 225 | 9.0 | 12.0 | 0.00 | 0.04 | 0.00 | 61 | 1029.8 |
| 20260906123303 | 55 | 225 | 5.0 | 7.0 | 0.00 | 0.04 | 0.00 | 63 | 1029.8 |
| 20260906122803 | 55 | 225 | 6.0 | 7.0 | 0.00 | 0.04 | 0.00 | 64 | 1029.8 |
| 20260906122306 | 55 | 225 | 5.0 | 7.0 | 0.00 | 0.04 | 0.00 | 63 | 1029.8 |
| 20260906121803 | 55 | 225 | 7.0 | 8.0 | 0.00 | 0.04 | 0.00 | 63 | 1029.8 |
| 20260906121303 | 55 | 225 | 8.0 | 9.0 | 0.00 | 0.04 | 0.00 | 63 | 1029.8 |
| 20260906120803 | 55 | 225 | 6.0 | 9.0 | 0.00 | 0.04 | 0.00 | 63 | 1029.8 |
| 20260906120303 | 54 | 225 | 9.0 | 9.0 | 0.00 | 0.04 | 0.00 | 64 | 1029.8 |
| 20260906115803 | 55 | 225 | 6.0 | 8.0 | 0.00 | 0.04 | 0.00 | 64 | 1030.1 |
| 20260906114803 | 56 | 225 | 6.0 | 8.0 | 0.00 | 0.04 | 0.00 | 62 | 1030.1 |
| 20260906114303 | 55 | 225 | 6.0 | 8.0 | 0.00 | 0.04 | 0.00 | 62 | 1029.8 |
| 20260906113303 | 55 | 225 | 5.0 | 7.0 | 0.00 | 0.04 | 0.00 | 63 | 1029.8 |
| 20260906112803 | 56 | 225 | 6.0 | 8.0 | 0.00 | 0.04 | 0.00 | 61 | 1029.8 |
| 20260906111803 | 57 | 270 | 6.0 | 7.0 | 0.00 | 0.04 | 0.00 | 60 | 1029.8 |
| 20260906110803 | 59 | 270 | 3.0 | 6.0 | 0.00 | 0.04 | 0.00 | 56 | 1029.8 |
| 20260906110303 | 58 | 225 | 7.0 | 7.0 | 0.00 | 0.04 | 0.00 | 57 | 1029.8 |
| 20260906105804 | 58 | 225 | 2.0 | 3.0 | 0.00 | 0.04 | 0.00 | 59 | 1029.8 |
| 20260906105306 | 58 | 225 | 5.0 | 6.0 | 0.00 | 0.04 | 0.00 | 60 | 1029.8 |
| 20260906104803 | 58 | 227 | 5.0 | 6.0 | 0.00 | 0.04 | 0.00 | 59 | 1029.4 |
| 20260906102804 | 59 | 270 | 7.0 | 8.0 | 0.00 | 0.04 | 0.00 | 58 | 1029.4 |
| 20260906102306 | 59 | 270 | 6.0 | 7.0 | 0.00 | 0.04 | 0.00 | 58 | 1029.4 |
| 20260906101803 | 58 | 270 | 6.0 | 8.0 | 0.00 | 0.04 | 0.00 | 59 | 1029.4 |
| 20260906101304 | 58 | 247 | 7.0 | 10.0 | 0.00 | 0.04 | 0.00 | 61 | 1029.4 |
| 20260906100803 | 57 | 247 | 8.0 | 9.0 | 0.00 | 0.04 | 0.00 | 61 | 1029.4 |
| 20260906100303 | 58 | 227 | 7.0 | 10.0 | 0.00 | 0.04 | 0.00 | 61 | 1029.8 |
| 20260906095803 | 57 | 247 | 7.0 | 9.0 | 0.00 | 0.04 | 0.00 | 61 | 1029.4 |
| 20260906095306 | 57 | 270 | 9.0 | 12.0 | 0.00 | 0.04 | 0.00 | 61 | 1029.8 |
| 20260906094804 | 57 | 270 | 9.0 | 9.0 | 0.00 | 0.04 | 0.00 | 61 | 1029.4 |
| 20260906094304 | 58 | 247 | 8.0 | 10.0 | 0.00 | 0.04 | 0.00 | 60 | 1029.8 |
| 20260906093803 | 58 | 225 | 7.0 | 9.0 | 0.00 | 0.04 | 0.00 | 60 | 1029.8 |
| 20260906092804 | 59 | 270 | 7.0 | 10.0 | 0.00 | 0.04 | 0.00 | 59 | 1029.8 |
| 20260906092306 | 58 | 256 | 8.0 | 10.0 | 0.00 | 0.04 | 0.00 | 61 | 1029.8 |
| 20260906091803 | 57 | 225 | 7.0 | 9.0 | 0.00 | 0.04 | 0.00 | 62 | 1029.8 |
| 20260906091304 | 57 | 247 | 8.0 | 9.0 | 0.00 | 0.04 | 0.00 | 61 | 1029.4 |
| 20260906090303 | 58 | 233 | 7.0 | 9.0 | 0.00 | 0.04 | 0.00 | 61 | 1029.8 |
| 20260906085804 | 59 | 267 | 7.0 | 8.0 | 0.00 | 0.04 | 0.00 | 59 | 1029.8 |
| 20260906084803 | 59 | 247 | 6.0 | 9.0 | 0.00 | 0.04 | 0.00 | 58 | 1029.8 |
| 20260906084304 | 59 | 270 | 6.0 | 8.0 | 0.00 | 0.04 | 0.00 | 59 | 1029.8 |
| 20260906083804 | 59 | 270 | 9.0 | 12.0 | 0.00 | 0.04 | 0.00 | 59 | 1029.8 |
| 20260906083303 | 59 | 270 | 7.0 | 9.0 | 0.00 | 0.04 | 0.00 | 58 | 1029.8 |
| 20260906082804 | 60 | 270 | 7.0 | 8.0 | 0.00 | 0.04 | 0.00 | 56 | 1029.4 |
| 20260906082305 | 61 | 270 | 6.0 | 8.0 | 0.00 | 0.04 | 0.00 | 55 | 1029.8 |
| 20260906081803 | 61 | 282 | 5.0 | 7.0 | 0.00 | 0.04 | 0.00 | 54 | 1029.8 |
| 20260906081303 | 62 | 270 | 6.0 | 8.0 | 0.00 | 0.04 | 0.00 | 54 | 1029.8 |
| 20260906080803 | 61 | 315 | 6.0 | 7.0 | 0.00 | 0.04 | 0.00 | 55 | 1029.4 |
| 20260906080303 | 61 | 270 | 6.0 | 8.0 | 0.00 | 0.04 | 0.00 | 55 | 1029.4 |
| 20260906075803 | 60 | 270 | 7.0 | 8.0 | 0.00 | 0.04 | 0.00 | 56 | 1029.4 |
| 20260906075306 | 59 | 270 | 7.0 | 9.0 | 0.00 | 0.04 | 0.00 | 58 | 1029.4 |
| 20260906074303 | 59 | 247 | 8.0 | 9.0 | 0.00 | 0.04 | 0.00 | 60 | 1029.4 |
| 20260906073803 | 59 | 247 | 7.0 | 9.0 | 0.00 | 0.04 | 0.00 | 59 | 1029.4 |
| 20260906073304 | 60 | 270 | 7.0 | 9.0 | 0.00 | 0.04 | 0.00 | 57 | 1029.4 |
| 20260906072804 | 61 | 247 | 7.0 | 8.0 | 0.00 | 0.04 | 0.00 | 55 | 1029.4 |
| 20260906071803 | 61 | 270 | 7.0 | 10.0 | 0.00 | 0.04 | 0.00 | 56 | 1029.4 |
| 20260906071303 | 61 | 247 | 7.0 | 9.0 | 0.00 | 0.04 | 0.00 | 56 | 1029.4 |
| 20260906070803 | 61 | 247 | 6.0 | 8.0 | 0.00 | 0.04 | 0.00 | 57 | 1029.4 |
| 20260906070303 | 61 | 247 | 7.0 | 10.0 | 0.00 | 0.04 | 0.00 | 57 | 1029.1 |
| 20260906065803 | 61 | 248 | 7.0 | 8.0 | 0.00 | 0.04 | 0.00 | 57 | 1029.4 |
| 20260906065305 | 61 | 247 | 5.0 | 7.0 | 0.00 | 0.04 | 0.00 | 58 | 1029.4 |
| 20260906063803 | 60 | 225 | 5.0 | 8.0 | 0.00 | 0.04 | 0.00 | 60 | 1029.1 |
| 20260906063303 | 59 | 247 | 7.0 | 8.0 | 0.00 | 0.04 | 0.00 | 61 | 1029.4 |
| 20260906062804 | 59 | 247 | 8.0 | 10.0 | 0.00 | 0.04 | 0.00 | 62 | 1029.4 |
| 20260906062306 | 59 | 247 | 9.0 | 10.0 | 0.00 | 0.04 | 0.00 | 63 | 1029.4 |
| 20260906061803 | 59 | 247 | 8.0 | 9.0 | 0.00 | 0.04 | 0.00 | 63 | 1029.4 |
| 20260906061304 | 58 | 247 | 8.0 | 9.0 | 0.00 | 0.04 | 0.00 | 64 | 1029.4 |
| 20260906060901 | 59 | 225 | 7.0 | 9.0 | 0.00 | 0.04 | 0.00 | 63 | 1029.4 |
| 20260906055306 | 60 | 225 | 7.0 | 9.0 | 0.00 | 0.04 | 0.04 | 62 | 1029.4 |
| 20260906054804 | 60 | 225 | 6.0 | 8.0 | 0.00 | 0.04 | 0.04 | 61 | 1029.4 |
| 20260906054303 | 60 | 225 | 7.0 | 9.0 | 0.00 | 0.04 | 0.04 | 62 | 1029.4 |
| 20260906053803 | 60 | 225 | 7.0 | 10.0 | 0.00 | 0.04 | 0.04 | 63 | 1029.4 |
| 20260906053303 | 60 | 225 | 7.0 | 9.0 | 0.00 | 0.04 | 0.04 | 63 | 1029.4 |
| 20260906052804 | 60 | 225 | 7.0 | 10.0 | 0.00 | 0.04 | 0.04 | 62 | 1029.7 |
| 20260906052305 | 60 | 234 | 8.0 | 10.0 | 0.00 | 0.04 | 0.04 | 62 | 1029.4 |
| 20260906051804 | 59 | 233 | 9.0 | 12.0 | 0.00 | 0.04 | 0.04 | 64 | 1029.5 |
| 20260906051303 | 59 | 231 | 9.0 | 10.0 | 0.00 | 0.04 | 0.04 | 65 | 1029.8 |
| 20260906050304 | 59 | 225 | 9.0 | 10.0 | 0.00 | 0.04 | 0.04 | 65 | 1029.7 |
| 20260906045803 | 59 | 225 | 9.0 | 10.0 | 0.00 | 0.04 | 0.04 | 66 | 1029.4 |
| 20260906045306 | 59 | 247 | 9.0 | 10.0 | 0.00 | 0.04 | 0.04 | 65 | 1029.8 |
| 20260906044804 | 59 | 225 | 9.0 | 10.0 | 0.00 | 0.04 | 0.04 | 65 | 1029.7 |
| 20260906043804 | 61 | 225 | 7.0 | 9.0 | 0.00 | 0.04 | 0.04 | 63 | 1029.8 |
| 20260906043304 | 61 | 225 | 7.0 | 10.0 | 0.00 | 0.04 | 0.04 | 63 | 1029.8 |
| 20260906042804 | 62 | 244 | 7.0 | 9.0 | 0.00 | 0.04 | 0.04 | 60 | 1029.8 |
| 20260906042306 | 63 | 225 | 7.0 | 12.0 | 0.00 | 0.04 | 0.04 | 58 | 1029.8 |
| 20260906041804 | 62 | 225 | 7.0 | 10.0 | 0.00 | 0.04 | 0.04 | 59 | 1030.1 |
| 20260906041304 | 62 | 228 | 6.0 | 9.0 | 0.00 | 0.04 | 0.04 | 61 | 1030.1 |
| 20260906040804 | 61 | 225 | 6.0 | 8.0 | 0.01 | 0.04 | 0.04 | 63 | 1029.8 |
| 20260906040304 | 61 | 252 | 6.0 | 7.0 | 0.03 | 0.04 | 0.04 | 65 | 1030.1 |
| 20260906035306 | 61 | 180 | 3.0 | 8.0 | 0.04 | 0.04 | 0.04 | 65 | 1030.1 |
| 20260906034803 | 62 | 269 | 9.0 | 10.0 | 0.04 | 0.04 | 0.04 | 64 | 1030.1 |
| 20260906034304 | 62 | 258 | 11.0 | 18.0 | 0.04 | 0.04 | 0.04 | 64 | 1030.1 |
| 20260906033804 | 62 | 248 | 9.0 | 15.0 | 0.04 | 0.04 | 0.04 | 64 | 1030.1 |
| 20260906033303 | 62 | 225 | 13.0 | 18.0 | 0.04 | 0.04 | 0.04 | 64 | 1030.1 |
| 20260906032803 | 63 | 251 | 9.0 | 14.0 | 0.04 | 0.04 | 0.04 | 60 | 1030.1 |
| 20260906032306 | 64 | 226 | 9.0 | 14.0 | 0.04 | 0.04 | 0.04 | 53 | 1029.8 |
| 20260906031803 | 64 | 90 | 9.0 | 16.0 | 0.04 | 0.04 | 0.04 | 50 | 1029.8 |
| 20260906031303 | 64 | 90 | 9.0 | 14.0 | 0.04 | 0.04 | 0.04 | 52 | 1030.1 |
| 20260906030804 | 65 | 152 | 13.0 | 21.0 | 0.03 | 0.03 | 0.03 | 53 | 1030.1 |
| 20260906030304 | 67 | 232 | 20.0 | 26.0 | 0.01 | 0.01 | 0.01 | 48 | 1029.8 |
| 20260906025803 | 68 | 245 | 7.0 | 17.0 | 0.00 | 0.00 | 0.00 | 44 | 1029.7 |
| 20260906025306 | 67 | 270 | 4.0 | 10.0 | 0.00 | 0.00 | 0.00 | 45 | 1029.4 |
| 20260906024804 | 67 | 225 | 2.0 | 5.0 | 0.00 | 0.00 | 0.00 | 45 | 1029.1 |
| 20260906024303 | 67 | 247 | 3.0 | 6.0 | 0.00 | 0.00 | 0.00 | 45 | 1029.1 |
| 20260906023804 | 67 | 247 | 3.0 | 5.0 | 0.00 | 0.00 | 0.00 | 46 | 1029.1 |
| 20260906023304 | 66 | 263 | 3.0 | 8.0 | 0.00 | 0.00 | 0.00 | 47 | 1029.1 |
| 20260906022803 | 66 | 200 | 6.0 | 8.0 | 0.00 | 0.00 | 0.00 | 47 | 1029.1 |
| 20260906022306 | 67 | 180 | 5.0 | 6.0 | 0.00 | 0.00 | 0.00 | 46 | 1028.8 |
| 20260906021804 | 67 | 180 | 5.0 | 6.0 | 0.00 | 0.00 | 0.00 | 45 | 1028.7 |
| 20260906021304 | 67 | 149 | 3.0 | 5.0 | 0.00 | 0.00 | 0.00 | 45 | 1029.1 |
| 20260906020304 | 68 | 225 | 5.0 | 6.0 | 0.00 | 0.00 | 0.00 | 44 | 1029.1 |
| 20260906015803 | 69 | 225 | 3.0 | 6.0 | 0.00 | 0.00 | 0.00 | 43 | 1028.7 |
| 20260906015306 | 69 | 224 | 4.0 | 6.0 | 0.00 | 0.00 | 0.00 | 42 | 1028.7 |
| 20260906014303 | 70 | 225 | 5.0 | 7.0 | 0.00 | 0.00 | 0.00 | 42 | 1028.7 |
| 20260906013803 | 70 | 180 | 6.0 | 9.0 | 0.00 | 0.00 | 0.00 | 42 | 1028.7 |
| 20260906013303 | 70 | 180 | 5.0 | 7.0 | 0.00 | 0.00 | 0.00 | 41 | 1028.7 |
| 20260906012804 | 71 | 135 | 6.0 | 9.0 | 0.00 | 0.00 | 0.00 | 41 | 1028.7 |
| 20260906012306 | 71 | 135 | 7.0 | 9.0 | 0.00 | 0.00 | 0.00 | 41 | 1028.7 |
| 20260906011803 | 71 | 135 | 7.0 | 12.0 | 0.00 | 0.00 | 0.00 | 40 | 1028.7 |
| 20260906011303 | 72 | 126 | 6.0 | 12.0 | 0.00 | 0.00 | 0.00 | 40 | 1028.5 |
| 20260906010804 | 72 | 119 | 9.0 | 12.0 | 0.00 | 0.00 | 0.00 | 39 | 1028.4 |
| 20260906010303 | 73 | 120 | 9.0 | 12.0 | 0.00 | 0.00 | 0.00 | 38 | 1028.5 |
| 20260906005804 | 73 | 135 | 7.0 | 12.0 | 0.00 | 0.00 | 0.00 | 38 | 1028.7 |
| 20260906005306 | 74 | 130 | 8.0 | 12.0 | 0.00 | 0.00 | 0.00 | 37 | 1028.4 |
| 20260906004804 | 75 | 135 | 6.0 | 9.0 | 0.00 | 0.00 | 0.00 | 37 | 1028.5 |
| 20260906004303 | 75 | 136 | 9.0 | 14.0 | 0.00 | 0.00 | 0.00 | 36 | 1028.4 |
| 20260906003803 | 76 | 134 | 4.0 | 9.0 | 0.00 | 0.00 | 0.00 | 36 | 1028.4 |
| 20260906003303 | 76 | 135 | 7.0 | 10.0 | 0.00 | 0.00 | 0.00 | 36 | 1028.4 |
| 20260906002804 | 76 | 135 | 7.0 | 10.0 | 0.00 | 0.00 | 0.00 | 35 | 1028.4 |
| 20260906002306 | 76 | 135 | 9.0 | 12.0 | 0.00 | 0.00 | 0.00 | 35 | 1028.4 |
| 20260906001804 | 76 | 135 | 6.0 | 10.0 | 0.00 | 0.00 | 0.00 | 35 | 1028.4 |
| 20260906001304 | 76 | 130 | 9.0 | 13.0 | 0.00 | 0.00 | 0.00 | 35 | 1028.4 |
| 20260906000803 | 76 | 112 | 8.0 | 15.0 | 0.00 | 0.00 | 0.00 | 35 | 1028.1 |
| 20260906000304 | 77 | 62 | 10.0 | 16.0 | 0.00 | 0.00 | 0.00 | 34 | 1028.1 |
| 20260905235803 | 77 | 45 | 7.0 | 13.0 | 0.00 | 0.00 | 0.00 | 35 | 1028.1 |
| 20260905235306 | 76 | 58 | 9.0 | 12.0 | 0.00 | 0.00 | 0.00 | 36 | 1028.1 |
| 20260905234804 | 76 | 42 | 8.0 | 12.0 | 0.00 | 0.00 | 0.00 | 35 | 1028.1 |
| 20260905234303 | 76 | 48 | 7.0 | 13.0 | 0.00 | 0.00 | 0.00 | 35 | 1028.1 |
| 20260905233804 | 77 | 81 | 10.0 | 15.0 | 0.00 | 0.00 | 0.00 | 34 | 1028.1 |
| 20260905233303 | 77 | 90 | 13.0 | 17.0 | 0.00 | 0.00 | 0.00 | 34 | 1028.1 |
| 20260905232803 | 77 | 82 | 10.0 | 15.0 | 0.00 | 0.00 | 0.00 | 33 | 1028.1 |
| 20260905232306 | 77 | 90 | 10.0 | 16.0 | 0.00 | 0.00 | 0.00 | 33 | 1027.8 |
| 20260905231803 | 77 | 92 | 5.0 | 12.0 | 0.00 | 0.00 | 0.00 | 33 | 1028.0 |
| 20260905231303 | 76 | 97 | 5.0 | 14.0 | 0.00 | 0.00 | 0.00 | 34 | 1028.1 |
| 20260905230804 | 76 | 99 | 12.0 | 17.0 | 0.00 | 0.00 | 0.00 | 35 | 1027.8 |
| 20260905230304 | 77 | 90 | 12.0 | 17.0 | 0.00 | 0.00 | 0.00 | 34 | 1028.1 |
| 20260905225803 | 78 | 91 | 13.0 | 21.0 | 0.00 | 0.00 | 0.00 | 32 | 1027.7 |
| 20260905225305 | 79 | 90 | 14.0 | 21.0 | 0.00 | 0.00 | 0.00 | 31 | 1027.7 |
| 20260905224803 | 79 | 140 | 8.0 | 22.0 | 0.00 | 0.00 | 0.00 | 30 | 1028.0 |
| 20260905223803 | 78 | 82 | 10.0 | 16.0 | 0.00 | 0.00 | 0.00 | 33 | 1028.1 |
| 20260905223304 | 79 | 75 | 14.0 | 20.0 | 0.00 | 0.00 | 0.00 | 32 | 1028.1 |
| 20260905222803 | 81 | 90 | 13.0 | 18.0 | 0.00 | 0.00 | 0.00 | 29 | 1028.0 |
| 20260905222306 | 82 | 112 | 9.0 | 37.0 | 0.00 | 0.00 | 0.00 | 27 | 1027.8 |
| 20260905221304 | 82 | 66 | 6.0 | 13.0 | 0.00 | 0.00 | 0.00 | 21 | 1028.1 |
| 20260905220804 | 81 | 271 | 3.0 | 9.0 | 0.00 | 0.00 | 0.00 | 21 | 1028.4 |
| 20260905220304 | 81 | 225 | 7.0 | 10.0 | 0.00 | 0.00 | 0.00 | 21 | 1028.4 |
| 20260905215804 | 81 | 225 | 10.0 | 15.0 | 0.00 | 0.00 | 0.00 | 22 | 1028.1 |
| 20260905215306 | 81 | 271 | 10.0 | 16.0 | 0.00 | 0.00 | 0.00 | 22 | 1028.1 |
| 20260905214303 | 81 | 225 | 10.0 | 17.0 | 0.00 | 0.00 | 0.00 | 22 | 1028.4 |
| 20260905213804 | 82 | 264 | 6.0 | 14.0 | 0.00 | 0.00 | 0.00 | 22 | 1028.4 |
| 20260905213304 | 82 | 225 | 9.0 | 13.0 | 0.00 | 0.00 | 0.00 | 23 | 1028.4 |
| 20260905212803 | 82 | 194 | 10.0 | 18.0 | 0.00 | 0.00 | 0.00 | 24 | 1028.4 |
| 20260905212306 | 84 | 268 | 7.0 | 10.0 | 0.00 | 0.00 | 0.00 | 25 | 1028.4 |
| 20260905211804 | 84 | 218 | 3.0 | 13.0 | 0.00 | 0.00 | 0.00 | 26 | 1028.4 |
| 20260905211303 | 83 | 154 | 3.0 | 8.0 | 0.00 | 0.00 | 0.00 | 26 | 1028.4 |
| 20260905210304 | 82 | 315 | 5.0 | 8.0 | 0.00 | 0.00 | 0.00 | 26 | 1028.4 |
| 20260905205803 | 83 | 135 | 5.0 | 12.0 | 0.00 | 0.00 | 0.00 | 26 | 1028.4 |
| 20260905205306 | 82 | 180 | 9.0 | 16.0 | 0.00 | 0.00 | 0.00 | 26 | 1028.7 |
| 20260905204804 | 80 | 186 | 8.0 | 17.0 | 0.00 | 0.00 | 0.00 | 26 | 1028.5 |
| 20260905204303 | 81 | 276 | 18.0 | 23.0 | 0.00 | 0.00 | 0.00 | 27 | 1028.4 |
| 20260905203803 | 81 | 242 | 3.0 | 9.0 | 0.00 | 0.00 | 0.00 | 28 | 1028.7 |
| 20260905202803 | 82 | 357 | 6.0 | 10.0 | 0.00 | 0.00 | 0.00 | 28 | 1029.0 |
| 20260905202306 | 82 | 34 | 6.0 | 10.0 | 0.00 | 0.00 | 0.00 | 28 | 1028.7 |
| 20260905201803 | 81 | 9 | 4.0 | 7.0 | 0.00 | 0.00 | 0.00 | 29 | 1029.1 |
| 20260905201303 | 81 | 173 | 2.0 | 10.0 | 0.00 | 0.00 | 0.00 | 30 | 1029.1 |
| 20260905200803 | 80 | 86 | 8.0 | 12.0 | 0.00 | 0.00 | 0.00 | 30 | 1029.1 |
| 20260905200304 | 79 | 63 | 4.0 | 10.0 | 0.00 | 0.00 | 0.00 | 31 | 1028.8 |
| 20260905195803 | 79 | 35 | 6.0 | 14.0 | 0.00 | 0.00 | 0.00 | 31 | 1028.8 |
| 20260905195306 | 79 | 110 | 5.0 | 9.0 | 0.00 | 0.00 | 0.00 | 30 | 1029.1 |
| 20260905194804 | 79 | 113 | 5.0 | 9.0 | 0.00 | 0.00 | 0.00 | 30 | 1029.1 |
| 20260905194303 | 79 | 241 | 5.0 | 9.0 | 0.00 | 0.00 | 0.00 | 30 | 1029.1 |
| 20260905193803 | 79 | 80 | 5.0 | 14.0 | 0.00 | 0.00 | 0.00 | 31 | 1029.1 |
| 20260905193303 | 78 | 99 | 2.0 | 9.0 | 0.00 | 0.00 | 0.00 | 31 | 1029.1 |
| 20260905192803 | 78 | 72 | 5.0 | 8.0 | 0.00 | 0.00 | 0.00 | 31 | 1029.3 |
| 20260905192306 | 78 | 90 | 7.0 | 10.0 | 0.00 | 0.00 | 0.00 | 31 | 1029.1 |
| 20260905191303 | 79 | 145 | 10.0 | 14.0 | 0.00 | 0.00 | 0.00 | 30 | 1029.2 |
| 20260905190804 | 78 | 178 | 9.0 | 16.0 | 0.00 | 0.00 | 0.00 | 30 | 1029.2 |
| 20260905190304 | 79 | 271 | 9.0 | 14.0 | 0.00 | 0.00 | 0.00 | 29 | 1029.3 |
| 20260905185306 | 78 | 231 | 8.0 | 18.0 | 0.00 | 0.00 | 0.00 | 30 | 1029.3 |
| 20260905184803 | 79 | 267 | 7.0 | 14.0 | 0.00 | 0.00 | 0.00 | 30 | 1029.4 |
| 20260905183803 | 79 | 134 | 3.0 | 8.0 | 0.00 | 0.00 | 0.00 | 31 | 1029.5 |
| 20260905182804 | 78 | 179 | 3.0 | 7.0 | 0.00 | 0.00 | 0.00 | 32 | 1029.8 |
| 20260905182306 | 78 | 270 | 2.0 | 8.0 | 0.00 | 0.00 | 0.00 | 32 | 1029.8 |
| 20260905181804 | 78 | 181 | 8.0 | 14.0 | 0.00 | 0.00 | 0.00 | 32 | 1029.8 |
| 20260905180803 | 76 | 284 | 7.0 | 14.0 | 0.00 | 0.00 | 0.00 | 35 | 1029.8 |
| 20260905180304 | 75 | 270 | 6.0 | 9.0 | 0.00 | 0.00 | 0.00 | 35 | 1029.8 |
| 20260905175804 | 76 | 329 | 6.0 | 10.0 | 0.00 | 0.00 | 0.00 | 35 | 1030.0 |
| 20260905175306 | 76 | 345 | 2.0 | 6.0 | 0.00 | 0.00 | 0.00 | 35 | 1030.0 |
| 20260905174804 | 76 | 45 | 6.0 | 12.0 | 0.00 | 0.00 | 0.00 | 35 | 1029.9 |
| 20260905174303 | 76 | 50 | 6.0 | 10.0 | 0.00 | 0.00 | 0.00 | 35 | 1030.1 |
| 20260905173803 | 75 | 17 | 4.0 | 8.0 | 0.00 | 0.00 | 0.00 | 36 | 1030.1 |
| 20260905173303 | 75 | 102 | 3.0 | 7.0 | 0.00 | 0.00 | 0.00 | 36 | 1030.1 |
| 20260905172305 | 74 | 75 | 5.0 | 8.0 | 0.00 | 0.00 | 0.00 | 36 | 1030.1 |
| 20260905171803 | 74 | 152 | 2.0 | 6.0 | 0.00 | 0.00 | 0.00 | 37 | 1030.1 |
| 20260905171304 | 74 | 69 | 7.0 | 10.0 | 0.00 | 0.00 | 0.00 | 37 | 1030.1 |
| 20260905170303 | 73 | 34 | 6.0 | 9.0 | 0.00 | 0.00 | 0.00 | 39 | 1030.1 |
| 20260905165803 | 73 | 89 | 5.0 | 8.0 | 0.00 | 0.00 | 0.00 | 39 | 1030.4 |
| 20260905165306 | 73 | 135 | 6.0 | 8.0 | 0.00 | 0.00 | 0.00 | 38 | 1030.2 |
| 20260905164804 | 73 | 45 | 5.0 | 9.0 | 0.00 | 0.00 | 0.00 | 39 | 1030.4 |
| 20260905164304 | 72 | 354 | 5.0 | 8.0 | 0.00 | 0.00 | 0.00 | 40 | 1030.1 |
| 20260905163803 | 71 | 90 | 3.0 | 7.0 | 0.00 | 0.00 | 0.00 | 40 | 1030.3 |
| 20260905163304 | 71 | 85 | 6.0 | 9.0 | 0.00 | 0.00 | 0.00 | 40 | 1030.2 |
| 20260905162804 | 71 | 69 | 6.0 | 10.0 | 0.00 | 0.00 | 0.00 | 40 | 1030.2 |
| 20260905162306 | 71 | 43 | 6.0 | 9.0 | 0.00 | 0.00 | 0.00 | 41 | 1030.2 |
| 20260905161303 | 70 | 45 | 6.0 | 9.0 | 0.00 | 0.00 | 0.00 | 42 | 1030.2 |